Date String (YYYY-MM-DD hh:mm:ss) UTC,Instrument flags,absolute air pressure of the measurement (hPa),sample flow rate (lpm),inlet stack bypass flow (lpm),air temperature of the measurement (°C),ambient temperature measured by the external sensor (°C),aerosol sample conditioner tube jacket temperature (°C),OPC LED temperature (°C),internal box temperature (°C),relative humidity of the measurement (%),span deviation,mass concentration of particles derived from Lorenz-Mie calculation of OPC scattering (μg/m³),mass concentration of particles derived from Lorenz-Mie calculation of OPC scattering (μg/m³),mass concentration of particles derived from Lorenz-Mie calculation of OPC scattering (μg/m³)
DateTimeUTC,F1_M11,P_M11,Q1_M11,Q2_M11,T1_M11,T2_M11,T3_M11,T4_M11,T5_M11,U1_M11,ZSPAN_M11,X2_M11,X0_M11,X1_M11
2024-05-29 04:00:00,SystemResetWarning,0832.8,4.99,000.00,031.1,030.4,000.0,039.3,032.8,021.6,0000.0,0005.30,0023.23,0003.71
2024-05-29 04:01:00,SystemResetWarning,0832.8,4.99,000.00,031.1,030.0,000.0,039.3,032.5,021.7,0000.0,0005.31,0022.86,0003.71
2024-05-29 04:02:00,SystemResetWarning,0832.7,5.01,000.00,030.7,027.4,000.0,039.4,031.3,022.2,0000.0,0005.36,0024.90,0003.70
2024-05-29 04:03:00,SystemResetWarning,0832.7,5.00,000.00,030.3,026.5,000.0,039.3,030.8,024.0,0000.0,0005.37,0026.64,0003.69
2024-05-29 04:04:00,SystemResetWarning,0832.7,5.01,000.00,030.1,026.8,000.0,039.2,030.8,023.6,0000.0,0005.43,0026.52,0003.71
2024-05-29 04:05:00,SystemResetWarning,0832.7,5.01,000.00,030.0,027.3,000.0,039.0,031.0,023.5,0000.0,0005.47,0025.26,0003.71
2024-05-29 04:06:00,SystemResetWarning,0832.8,4.99,000.00,030.0,027.7,000.0,038.9,031.2,023.2,0000.0,0005.53,0025.39,0003.71
2024-05-29 04:07:00,SystemResetWarning,0832.8,5.00,000.00,030.0,028.1,000.0,038.8,031.4,023.5,0000.0,0005.53,0025.89,0003.71
2024-05-29 04:08:00,SystemResetWarning,0832.8,5.01,000.00,030.1,028.4,000.0,038.8,031.5,022.8,0000.0,0005.52,0025.22,0003.71
2024-05-29 04:09:00,SystemResetWarning,0833.2,5.00,000.00,030.1,028.6,000.0,038.7,031.6,022.7,0000.0,0005.48,0023.73,0003.69
2024-05-29 04:10:00,SystemResetWarning,0833.4,5.00,000.00,030.1,028.8,000.0,038.7,031.7,022.8,0000.0,0005.44,0024.33,0003.67
2024-05-29 04:11:00,SystemResetWarning,0833.3,5.00,000.00,030.1,029.0,000.0,038.7,031.8,023.1,0000.0,0005.39,0025.21,0003.66
2024-05-29 04:12:00,SystemResetWarning,0832.9,5.01,000.00,030.2,029.2,000.0,038.7,031.8,023.1,0000.0,0005.42,0025.06,0003.66
2024-05-29 04:13:00,SystemResetWarning,0832.9,5.00,000.00,030.2,029.3,000.0,038.7,031.9,023.1,0000.0,0005.46,0023.57,0003.65
2024-05-29 04:14:00,SystemResetWarning,0833.1,5.01,000.00,030.2,029.4,000.0,038.7,031.9,022.9,0000.0,0005.43,0021.91,0003.66
2024-05-29 04:15:00,SystemResetWarning,0833.3,5.00,000.00,030.3,029.5,000.0,038.7,032.0,022.7,0000.0,0005.34,0021.29,0003.63
2024-05-29 04:16:00,SystemResetWarning,0833.2,5.00,000.00,030.3,029.6,000.0,038.7,032.0,022.6,0000.0,0005.26,0021.98,0003.61
2024-05-29 04:17:00,SystemResetWarning,0832.9,5.00,000.00,030.3,029.6,000.0,038.7,032.0,022.5,0000.0,0005.24,0023.21,0003.59
2024-05-29 04:18:00,SystemResetWarning,0833.0,5.00,000.00,030.4,029.7,000.0,038.7,032.1,022.5,0000.0,0005.25,0025.10,0003.59
2024-05-29 04:19:00,SystemResetWarning,0833.0,5.00,000.00,030.4,029.7,000.0,038.7,032.1,022.4,0000.0,0005.24,0025.21,0003.58
2024-05-29 04:20:00,SystemResetWarning,0833.3,4.99,000.00,030.4,029.8,000.0,038.7,032.1,022.3,0000.0,0005.22,0026.00,0003.58
2024-05-29 04:21:00,SystemResetWarning,0833.2,5.00,000.00,030.5,029.8,000.0,038.7,032.2,022.2,0000.0,0005.16,0024.83,0003.58
2024-05-29 04:22:00,SystemResetWarning,0833.1,5.00,000.00,030.5,029.9,000.0,038.8,032.2,022.0,0000.0,0005.19,0025.03,0003.58
2024-05-29 04:23:00,SystemResetWarning,0833.3,4.99,000.00,030.5,029.9,000.0,038.8,032.2,021.9,0000.0,0005.18,0024.86,0003.57
2024-05-29 04:24:00,SystemResetWarning,0833.2,5.00,000.00,030.6,029.9,000.0,038.8,032.3,021.9,0000.0,0005.09,0024.45,0003.56
2024-05-29 04:25:00,SystemResetWarning,0833.2,5.00,000.00,030.6,029.9,000.0,038.8,032.3,022.5,0000.0,0005.06,0025.48,0003.54
2024-05-29 04:26:00,SystemResetWarning,0833.2,5.00,000.00,030.6,030.0,000.0,038.9,032.3,022.2,0000.0,0005.10,0026.35,0003.55
2024-05-29 04:27:00,SystemResetWarning,0833.2,5.00,000.00,030.6,030.0,000.0,038.9,032.3,022.2,0000.0,0005.14,0025.18,0003.56
2024-05-29 04:28:00,SystemResetWarning,0833.3,5.00,000.00,030.7,030.0,000.0,038.9,032.4,022.3,0000.0,0005.10,0023.43,0003.56
2024-05-29 04:29:00,SystemResetWarning,0833.3,5.00,000.00,030.7,030.0,000.0,038.9,032.4,022.3,0000.0,0005.08,0021.53,0003.56
2024-05-29 04:30:00,SystemResetWarning,0833.3,5.00,000.00,030.7,030.1,000.0,038.9,032.4,021.8,0000.0,0005.11,0021.61,0003.56
2024-05-29 04:31:00,SystemResetWarning,0833.4,5.00,000.00,030.7,030.1,000.0,039.0,032.4,021.4,0000.0,0005.12,0021.11,0003.55
2024-05-29 04:32:00,SystemResetWarning,0833.4,5.00,000.00,030.8,030.1,000.0,039.0,032.4,020.9,0000.0,0005.16,0021.25,0003.55
2024-05-29 04:33:00,SystemResetWarning,0833.4,5.00,000.00,030.8,030.1,000.0,039.0,032.4,020.5,0000.0,0005.17,0020.84,0003.53
2024-05-29 04:34:00,SystemResetWarning,0833.4,5.01,000.00,030.8,030.1,000.0,039.0,032.4,020.4,0000.0,0005.12,0020.20,0003.51
2024-05-29 04:35:00,SystemResetWarning,0833.4,5.00,000.00,030.8,030.1,000.0,039.0,032.5,020.3,0000.0,0005.09,0019.58,0003.49
2024-05-29 04:36:00,SystemResetWarning,0833.4,5.00,000.00,030.8,030.2,000.0,039.1,032.5,020.4,0000.0,0005.11,0018.34,0003.48
2024-05-29 04:37:00,SystemResetWarning,0833.4,5.00,000.00,030.8,030.2,000.0,039.1,032.5,020.5,0000.0,0005.08,0018.19,0003.45
2024-05-29 04:38:00,SystemResetWarning,0833.4,5.00,000.00,030.9,030.2,000.0,039.1,032.5,020.4,0000.0,0005.03,0018.92,0003.43
2024-05-29 04:39:00,SystemResetWarning,0833.4,5.00,000.00,030.9,030.2,000.0,039.1,032.6,020.3,0000.0,0005.03,0018.72,0003.41
2024-05-29 04:40:00,SystemResetWarning,0833.4,5.00,000.00,030.9,030.2,000.0,039.1,032.6,020.2,0000.0,0005.00,0018.12,0003.37
2024-05-29 04:41:00,SystemResetWarning,0833.4,5.00,000.00,030.9,030.2,000.0,039.1,032.6,020.2,0000.0,0004.91,0017.05,0003.33
2024-05-29 04:42:00,SystemResetWarning,0833.5,5.01,000.00,030.9,030.2,000.0,039.2,032.6,020.2,0000.0,0004.84,0016.82,0003.30
2024-05-29 04:43:00,SystemResetWarning,0833.5,5.00,000.00,030.9,030.2,000.0,039.2,032.6,020.2,0000.0,0004.75,0017.17,0003.28
2024-05-29 04:44:00,SystemResetWarning,0833.7,4.99,000.00,030.9,030.2,000.0,039.2,032.6,020.2,0000.0,0004.73,0016.44,0003.27
2024-05-29 04:45:00,SystemResetWarning,0833.7,5.00,000.00,031.0,030.2,000.0,039.2,032.6,020.2,0000.0,0004.72,0016.46,0003.26
2024-05-29 04:46:00,SystemResetWarning,0833.7,5.01,000.00,031.0,030.3,000.0,039.2,032.6,020.1,0000.0,0004.67,0016.72,0003.24
2024-05-29 04:47:00,SystemResetWarning,0833.7,5.01,000.00,031.0,030.3,000.0,039.2,032.6,020.1,0000.0,0004.60,0016.52,0003.21
2024-05-29 04:48:00,SystemResetWarning,0833.7,4.99,000.00,031.0,030.3,000.0,039.3,032.6,020.1,0000.0,0004.60,0016.54,0003.20
2024-05-29 04:49:00,SystemResetWarning,0833.7,5.00,000.00,031.0,030.3,000.0,039.3,032.7,020.1,0000.0,0004.55,0017.16,0003.17
2024-05-29 04:50:00,SystemResetWarning,0833.7,5.02,000.00,031.0,030.3,000.0,039.3,032.6,020.1,0000.0,0004.47,0016.68,0003.15
2024-05-29 04:51:00,SystemResetWarning,0833.7,5.00,000.00,031.0,030.3,000.0,039.3,032.6,020.1,0000.0,0004.45,0016.52,0003.14
2024-05-29 04:52:00,SystemResetWarning,0833.7,5.00,000.00,031.0,030.3,000.0,039.3,032.7,020.1,0000.0,0004.50,0016.68,0003.15
2024-05-29 04:53:00,SystemResetWarning,0833.7,4.99,000.00,031.0,030.3,000.0,039.3,032.7,020.1,0000.0,0004.51,0016.78,0003.14
2024-05-29 04:54:00,SystemResetWarning,0833.7,5.00,000.00,031.0,030.3,000.0,039.3,032.7,020.1,0000.0,0004.55,0016.33,0003.13
2024-05-29 04:55:00,SystemResetWarning,0833.7,5.00,000.00,031.1,030.3,000.0,039.4,032.7,020.0,0000.0,0004.52,0015.96,0003.10
2024-05-29 04:56:00,SystemResetWarning,0833.7,5.00,000.00,031.1,030.3,000.0,039.4,032.7,020.1,0000.0,0004.45,0015.91,0003.09
2024-05-29 04:57:00,SystemResetWarning,0833.7,5.00,000.00,031.1,030.3,000.0,039.4,032.7,020.2,0000.0,0004.44,0015.47,0003.09
2024-05-29 04:58:00,SystemResetWarning,0833.8,5.01,000.00,031.1,030.3,000.0,039.4,032.7,020.3,0000.0,0004.44,0016.13,0003.10
2024-05-29 04:59:00,SystemResetWarning,0833.8,4.99,000.00,031.1,030.3,000.0,039.4,032.7,020.4,0000.0,0004.37,0016.11,0003.07
